Weather History for EHRD - March, 2014

Change the Weather History Date:

Monday, March 17, 2014

  Actual Average (EHAM) Record (EHAM)
Temperature  
Mean Temperature 48 °F -  
Max Temperature 53 °F 52 °F - (-1)
Min Temperature 42 °F 38 °F - (-1)
Degree Days  
Heating Degree Days 18    
Moisture  
Dew Point 44 °F    
Average Humidity 77    
Maximum Humidity 93    
Minimum Humidity 58    
Precipitation  
Precipitation 0.00 in - - ()
Sea Level Pressure  
Sea Level Pressure 30.11 in    
Wind  
Wind Speed 8 mph ()    
Max Wind Speed 16 mph    
Max Gust Speed -    
Visibility 8.3 miles    
Events      
Averages and records for this station are not official NWS values.
T = Trace of Precipitation, MM = Missing Value Source: Averaged Metar Reports

Daily Weather History Graph

Daily Weather History Graph

Search for Another Location

Airport or City:

Trip Planner

Search our weather history database for the weather conditions in past years. The results will help you decide how hot, cold, wet, or windy it might be!

Date:

Astronomy

Mar. 17, 2014 Rise Set
Actual Time 6:52 AM CET 6:49 PM CET
Civil Twilight 6:18 AM CET 7:23 PM CET
Nautical Twilight 5:39 AM CET 8:03 PM CET
Astronomical Twilight 4:58 AM CET 8:44 PM CET
Moon 8:02 PM CET (3/17) 6:52 AM CET (3/17)
Length of Visible Light 13h 04m
Length of Day
11h 57m
Waxing Gibbous, 99% of the Moon is Illuminated
Mar 17
Waxing Gibbous
Mar 24
Last Quarter
Mar 30
New
Apr 7
First Quarter
Apr 15
Full

Hourly Weather History & Observations

Time (CET) Temp. Windchill Dew Point Humidity Pressure Visibility Wind Dir Wind Speed Gust Speed Precip Events Conditions
12:00 AM 46 °F - 44 °F 89% 30.13 in 6 mi West 6.7 mph - -  
12:25 AM 46.4 °F 43.5 °F 42.8 °F 87% 30.12 in 6.2 mi West 5.8 mph - N/A   Unknown
12:55 AM 48.2 °F - 44.6 °F 87% 30.12 in 6.2 mi West 5.8 mph - N/A   Mostly Cloudy
1:00 AM 49 °F - 46 °F 85% 30.13 in 9 mi WNW 6.7 mph - -   Partly Cloudy
1:25 AM 50.0 °F - 46.4 °F 87% 30.12 in 6.2 mi West 5.8 mph - N/A   Overcast
1:55 AM 50.0 °F - 46.4 °F 87% 30.12 in 6.2 mi WNW 6.9 mph - N/A   Overcast
2:00 AM 50 °F - 46 °F 82% 30.13 in 9 mi West 8.9 mph - -   Overcast
2:25 AM 50.0 °F - 46.4 °F 87% 30.12 in 6.2 mi WNW 8.1 mph - N/A   Overcast
2:55 AM 50.0 °F - 44.6 °F 82% 30.12 in 6.2 mi WNW 9.2 mph - N/A   Overcast
3:00 AM 50 °F - 45 °F 78% 30.12 in 10 mi West 8.9 mph - -   Overcast
3:25 AM 50.0 °F - 44.6 °F 82% 30.09 in 6.2 mi WNW 9.2 mph - N/A   Overcast
3:55 AM 50.0 °F - 44.6 °F 82% 30.09 in 6.2 mi WNW 10.4 mph - N/A   Overcast
4:00 AM 50 °F - 45 °F 77% 30.11 in 11 mi WNW 11.2 mph - -   Overcast
4:25 AM 50.0 °F - 44.6 °F 82% 30.09 in 6.2 mi WNW 11.5 mph - N/A   Overcast
4:55 AM 48.2 °F - 44.6 °F 87% 30.09 in 6.2 mi WNW 9.2 mph - N/A   Unknown
5:25 AM 46.4 °F 42.4 °F 44.6 °F 93% 30.09 in 6.2 mi West 8.1 mph - N/A   Unknown
5:55 AM 44.6 °F 41.4 °F 42.8 °F 93% 30.09 in 5.0 mi West 5.8 mph - N/A   Scattered Clouds
6:00 AM 46 °F - 43 °F 85% 30.11 in 6 mi West 6.7 mph - -   Mist
6:25 AM 44.6 °F 41.4 °F 42.8 °F 93% 30.09 in 5.6 mi West 5.8 mph - N/A   Mostly Cloudy
6:55 AM 46.4 °F 43.5 °F 44.6 °F 93% 30.09 in 6.2 mi West 5.8 mph - N/A   Mostly Cloudy
7:00 AM 47 °F - 44 °F 86% 30.11 in 7 mi West 6.7 mph - -   Partly Cloudy
7:25 AM 48.2 °F - 44.6 °F 87% 30.09 in 6.2 mi WNW 5.8 mph - N/A   Overcast
7:55 AM 50.0 °F - 44.6 °F 82% 30.12 in 6.2 mi West 6.9 mph - N/A   Overcast
8:00 AM 49 °F - 45 °F 83% 30.12 in 9 mi West 8.9 mph - -   Overcast
8:25 AM 50.0 °F - 44.6 °F 82% 30.12 in 6.2 mi West 10.4 mph - N/A   Overcast
8:55 AM 50.0 °F - 46.4 °F 87% 30.12 in 6.2 mi West 9.2 mph - N/A   Overcast
9:00 AM 51 °F - 45 °F 74% 30.14 in 11 mi West 8.9 mph - -   Overcast
9:25 AM 51.8 °F - 46.4 °F 82% 30.12 in 6.2 mi West 12.7 mph - N/A   Overcast
9:55 AM 51.8 °F - 44.6 °F 76% 30.12 in 6.2 mi West 11.5 mph - N/A   Overcast
10:00 AM 52 °F - 45 °F 70% 30.14 in 11 mi West 11.2 mph - -   Overcast
10:25 AM 51.8 °F - 44.6 °F 76% 30.12 in 6.2 mi West 10.4 mph - N/A   Overcast
10:55 AM 51.8 °F - 44.6 °F 76% 30.12 in 6.2 mi West 12.7 mph - N/A   Overcast
11:00 AM 52 °F - 44 °F 66% 30.14 in 14 mi West 11.2 mph - -   Overcast
11:25 AM 51.8 °F - 42.8 °F 71% 30.12 in 6.2 mi West 15.0 mph - N/A   Overcast
11:55 AM 51.8 °F - 44.6 °F 76% 30.12 in 6.2 mi West 12.7 mph - N/A   Overcast
12:00 PM 52 °F - 44 °F 64% 30.14 in 11 mi West 11.2 mph - -   Overcast
12:25 PM 53.6 °F - 44.6 °F 72% 30.12 in 6.2 mi West 15.0 mph - N/A   Overcast
12:55 PM 51.8 °F - 42.8 °F 71% 30.12 in 6.2 mi West 13.8 mph - N/A   Overcast
1:00 PM 53 °F - 44 °F 62% 30.14 in 17 mi West 13.4 mph - -   Partly Cloudy
1:25 PM 53.6 °F - 44.6 °F 72% 30.12 in 6.2 mi West 13.8 mph - N/A   Overcast
1:55 PM 51.8 °F - 42.8 °F 71% 30.12 in 6.2 mi West 13.8 mph - N/A   Overcast
2:00 PM 53 °F - 44 °F 64% 30.13 in 16 mi West 11.2 mph - -   Overcast
2:25 PM 53.6 °F - 42.8 °F 67% 30.12 in 6.2 mi West 15.0 mph - N/A   Overcast
2:55 PM 53.6 °F - 42.8 °F 67% 30.12 in 6.2 mi West 13.8 mph - N/A   Overcast
3:00 PM 53 °F - 43 °F 58% 30.13 in 14 mi West 15.7 mph - -   Overcast
3:25 PM 51.8 °F - 42.8 °F 71% 30.12 in 6.2 mi West 15.0 mph - N/A   Overcast
3:55 PM 51.8 °F - 41.0 °F 67% 30.12 in 6.2 mi West 13.8 mph - N/A   Overcast
4:00 PM 53 °F - 42 °F 58% 30.13 in 17 mi West 11.2 mph - -   Overcast
4:25 PM 51.8 °F - 42.8 °F 71% 30.12 in 6.2 mi West 12.7 mph - N/A   Overcast
4:55 PM 51.8 °F - 42.8 °F 71% 30.09 in 6.2 mi West 10.4 mph - N/A   Overcast
5:00 PM 52 °F - 42 °F 60% 30.12 in 17 mi West 11.2 mph - -   Overcast
5:25 PM 51.8 °F - 42.8 °F 71% 30.09 in 6.2 mi West 10.4 mph - N/A   Overcast
5:55 PM 51.8 °F - 42.8 °F 71% 30.12 in 6.2 mi West 10.4 mph - N/A   Overcast
6:00 PM 51 °F - 42 °F 63% 30.12 in 16 mi West 8.9 mph - -   Mostly Cloudy
6:25 PM 50.0 °F - 42.8 °F 76% 30.09 in 6.2 mi West 8.1 mph - N/A   Unknown
6:55 PM 50.0 °F - 41.0 °F 71% 30.09 in 6.2 mi WSW 9.2 mph - N/A   Overcast
7:00 PM 49 °F - 42 °F 67% 30.11 in 17 mi WSW 8.9 mph - -   Partly Cloudy
7:25 PM 48.2 °F - 41.0 °F 76% 30.09 in 6.2 mi WSW 6.9 mph - N/A   Overcast
7:55 PM 48.2 °F - 41.0 °F 76% 30.09 in 6.2 mi SW 8.1 mph - N/A   Overcast
8:00 PM 48 °F - 42 °F 71% 30.12 in 19 mi WSW 6.7 mph - -   Overcast
8:25 PM 48.2 °F - 42.8 °F 82% 30.09 in 6.2 mi SSW 6.9 mph - N/A   Overcast
8:55 PM 48.2 °F - 42.8 °F 82% 30.09 in 6.2 mi SW 8.1 mph - N/A   Partly Cloudy
9:00 PM 47 °F - 42 °F 77% 30.12 in 13 mi SW 6.7 mph - -   Overcast
9:25 PM 48.2 °F - 41.0 °F 76% 30.09 in 6.2 mi SW 6.9 mph - N/A   Unknown
9:55 PM 48.2 °F - 41.0 °F 76% 30.09 in 6.2 mi WSW 8.1 mph - N/A   Unknown
10:00 PM 48 °F - 42 °F 71% 30.10 in 19 mi WSW 8.9 mph - -   Overcast
10:25 PM 48.2 °F - 42.8 °F 82% 30.09 in 6.2 mi WSW 9.2 mph - N/A   Unknown
10:55 PM 46.4 °F 42.4 °F 42.8 °F 87% 30.09 in 6.2 mi WSW 8.1 mph - N/A   Unknown
11:00 PM 47 °F - 42 °F 78% 30.10 in 17 mi WSW 8.9 mph - -  
11:25 PM 48.2 °F - 42.8 °F 82% 30.09 in 6.2 mi WSW 10.4 mph - N/A   Mostly Cloudy
11:55 PM 48.2 °F - 44.6 °F 87% 30.06 in 6.2 mi WSW 9.2 mph - N/A   Overcast